Regional Weather Roundup
Issued by NWS

Home | Current Version | Previous Version | Text Only | Print | Product List | Glossary Off
Versions: 1 2 3 4 5 6 7 8 9 10 11 12 13 14 15 16 17 18 19 20 21 22 23 24 25 26 27 28 29 30 31 32 33 34 35 36 37 38 39 40 41 42 43 44 45 46 47 48 49 50

000
ASUS45 KTFX 241619
RWRMT
MONTANA HOURLY WEATHER ROUNDUP
NATIONAL WEATHER SERVICE GREAT FALLS MT
1019 AM MDT THU APR 24 2014

NOTE: "FAIR" INDICATES FEW OR NO CLOUDS BELOW 12000 FEET WITH NO
SIGNIFICANT WEATHER AND/OR OBSTRUCTIONS TO VISIBILITY.

* THESE STATIONS ARE NOT UNDER NWS QUALITY CONTROL. THEY DO NOT
   REPORT WEATHER SUCH AS PRECIPITATION OR FOG.

MTZ001>007-043-241700-
WEST OF THE DIVIDE
CITY           SKY/WX    TMP DP  RH WIND       PRES   REMARKS
KALISPELL      LGT RAIN  39  36  89 CALM      29.79S
MISSOULA       CLOUDY    41  37  86 CALM      29.83S
BUTTE          CLOUDY    39  23  53 CALM      29.84S
MULLAN PASS    SNOW      30  28  92 VRB3      29.74S VSB M1/4
* ESSEX        N/A       37  32  82 N/A        N/A
* LINCOLN      N/A       37  34  89 W1         N/A
* LOOKOUT PASS N/A       34  34 100 N/A        N/A
* PLAINS APT   CLOUDY    43  36  76 CALM      29.82S
* POLSON       N/A       39  35  86 E1         N/A
* RONAN APT    CLOUDY    41  36  82 N/A        N/A
* SEELEY LAKE  N/A       35  33  92 N/A        N/A
* THOMP F APT  CLOUDY    32  24  72 E3G8       N/A
* YAAK HILL    N/A       38  35  89 SE1G6      N/A
$$

MTZ008-052>055-241700-
SOUTHWEST MONTANA
CITY           SKY/WX    TMP DP  RH WIND       PRES   REMARKS
BOZEMAN        CLOUDY    48  27  44 S7        29.84F
DILLON         CLOUDY    46  25  44 S20       29.84F
W YELLOWSTONE  N/A       37  24  59 SW6G13     N/A   WCI  32
* THREE FORKS  CLOUDY    48  27  44 S21G35     N/A
* BOULDER HILL N/A       39  21  48 SW13       N/A   WCI  31
* MONIDA PASS  N/A       29  23  78 SE14G21    N/A   WCI  18
* RAYNOLDS PAS N/A       32  14  47 SE18       N/A   WCI  21
* WHITEHALL    N/A       47  24  40 SW11G17    N/A
* WISE RIVER   N/A       38  25  60 E3         N/A
$$

MTZ009>010-012-014-046-048-049-054-241700-
EAST SLOPES AND CENTRAL MONTANA
CITY           SKY/WX    TMP DP  RH WIND       PRES   REMARKS
CUT BANK       PTSUNNY   48  28  46 SW17      29.73F
GREAT FALLS    CLOUDY    48  30  50 SW12      29.77F
HELENA         CLOUDY    39  36  89 CALM      29.81F
MALMSTROM AFB  CLOUDY    48  28  46 S13       29.75F
* CONRAD       PTSUNNY   48  34  59 SE8        N/A
* DEARBORN     N/A       43  32  65 S14        N/A
* EAST GLACIER N/A       36  28  73 W22G27     N/A   WCI  25
* MONARCH      N/A       41  18  39 SW23G28    N/A
* PENDROY      N/A       42  27  55 SW10G15    N/A
* ROGERS PASS  N/A       34  28  79 SE8G16     N/A   WCI  27
* SAINT MARY   N/A       40  25  55 S6G12      N/A   WCI  36
* SWEET GRASS  N/A       43  21  42 SW9        N/A
* WHITE SULPH  N/A       42  22  45 SW7G22     N/A
$$

MTZ011-013-016-021-035-040-045-047-050-051-241700-
NORTH CENTRAL MONTANA
CITY           SKY/WX    TMP DP  RH WIND       PRES   REMARKS
HAVRE          SUNNY     48  27  44 SW14      29.77F
LEWISTOWN      SUNNY     48  27  44 W17G25    29.79F
* CHINOOK      SUNNY     48  23  37 W14       29.77F
* FORT BENTON  PTCLDY    52  32  47 S8        29.78F
* MALTA APT    SUNNY     50  28  43 W12G18    29.75F
* CHESTER      N/A       41  27  58 SW3        N/A
* DENTON       N/A       50  26  39 NW9G15     N/A
* GEYSER       N/A       49  24  38 W17G22     N/A
* JUDITH GAP   N/A       47  24  40 W18G25     N/A
* LOMA         N/A       46  32  58 SW6        N/A
$$

MTZ017>020-022>027-061-062-241700-
NORTHEAST MONTANA
CITY           SKY/WX    TMP DP  RH WIND       PRES   REMARKS
GLASGOW        SUNNY     50  30  46 W15       29.77S
GLENDIVE       SUNNY     52  25  35 W22       29.80S
JORDAN         SUNNY     52  25  35 W20G28    29.79S
SIDNEY         SUNNY     54  32  43 W14G20    29.77R
WOLF POINT     PTCLDY    54  32  43 W15       29.77S
* BEAVER HILL  N/A       49  24  38 W16G21     N/A
* CIRCLE       N/A       48  29  48 W12G18     N/A
* LINDSAY DVD  N/A       47  24  40 W20G26     N/A
* NAVAJO       N/A       46  33  61 NW15G20    N/A
* SACO         N/A       50  30  46 SW12G18    N/A
* SCOBEY APT   PTCLDY    48  27  44 NW13G18   29.73S
$$

MTZ028>042-056>058-241700-
SOUTHCENTRAL AND SOUTHEAST MONTANA
CITY           SKY/WX    TMP DP  RH WIND       PRES   REMARKS
BAKER          SUNNY     52  25  35 W20G29    29.81F
BILLINGS       PTCLDY    48  23  37 CALM      29.84F
LIVINGSTON     CLOUDY    46  21  37 SW37G44   29.80S
MILES CITY     SUNNY     54  23  30 W18       29.82S
* EKALAKA APT  SUNNY     48  25  41 W14G20    29.83S
* LAUREL APT   SUNNY     48  21  34 SE6        N/A
* ROUNDUP APT  SUNNY     50  27  41 SW13       N/A
* HYSHAM       N/A       49  27  43 W8G13      N/A
* REED POINT   N/A       54  34  47 E3         N/A
* ROSCOE HILL  N/A       47  14  26 S14G24     N/A
$$

REGIONAL REPORTS...DAKOTAS
CITY           SKY/WX    TMP DP  RH WIND       PRES   REMARKS
WILLISTON      SUNNY     50  34  54 W13       29.73S
DICKINSON      SUNNY     54  21  27 W20       29.74F
CROSBY         PTSUNNY   48  41  77 NW10      29.71R
TIOGA          SUNNY     46  34  63 W16       29.73R
WATFORD CITY   SUNNY     50  32  50 W18G26    29.71F
BISMARCK       SUNNY     55  28  35 W14G20    29.75S
GRAND FORKS    LGT RAIN  43  39  86 SE12      29.76S
FARGO          LGT RAIN  43  39  86 SE9       29.75F
BUFFALO SD     PTCLDY    52  27  38 W23       29.77S
RAPID CITY     SUNNY     57  21  25 N13G21    29.85S
$$

REGIONAL REPORTS...WYOMING/IDAHO/WASHINGTON
CITY           SKY/WX    TMP DP  RH WIND       PRES   REMARKS
GILLETTE       SUNNY     48  25  41 N7G18     29.88S
SHERIDAN       SUNNY     48  23  37 SE6       29.87F
CODY           PTSUNNY   50  21  32 W10G17    29.86F
YELLOWSTONE LA PTSUNNY   32  19  59 CALM      29.98F
SALMON         CLOUDY    46  30  54 SW14G23   29.86R
MULLAN PASS    SNOW      30  28  92 VRB3      29.74S VSB M1/4
SAND POINT     RAIN      39  39 100 CALM      29.79S
SPOKANE        CLOUDY    46  43  89 S21G28    29.73R
$$

REGIONAL REPORTS...ALBERTA
CITY           SKY/WX    TMP DP  RH WIND       PRES   REMARKS
CALGARY        SUNNY     45  16  31 W8        29.68F
LETHBRIDGE     PTCLDY    50  21  32 W22G30    29.70F
MEDICINE HAT   SUNNY     45  36  71 SW9       29.72F
EDMONTON       PTSUNNY   37  32  82 NW12      29.69S WCI  29
WATERTON GATE  N/A       43  27  53 SW15G21    N/A
CARDSTON       N/A       45  25  45 W2         N/A
MILK RIVER     N/A       46  21  37 W9         N/A
$$

REGIONAL REPORTS...SASKATCHEWAN
CITY           SKY/WX    TMP DP  RH WIND       PRES   REMARKS
SWIFT CURRENT  SUNNY     45  32  60 W24G32    29.66S
MOOSE JAW      PTSUNNY   45  34  65 NW20      29.67S
REGINA         CLOUDY    41  36  82 W16       29.67R
VAL MARIE      N/A       48  32  54 W16        N/A
ASSINIBOIA     N/A       46  34  63 W23G32     N/A
CORONACH       N/A       48  34  59 W20        N/A

$$




USA.gov is the U.S. government's official web portal to all federal, state and local government web resources and services.